Weather History for Taylorville, IL

Change the Weather History Date:

Sunday, February 2, 2014

  Actual Average (KSPI) Record (KSPI)
Temperature  
Mean Temperature 18 °F 28 °F  
Max Temperature 26 °F 36 °F 62 °F (2012)
Min Temperature 10 °F 20 °F -16 °F (1905)
Degree Days  
Heating Degree Days 47 37  
Month to date heating degree days 74  
Since 1 July heating degree days 3400  
Cooling Degree Days 0 0  
Month to date cooling degree days 0  
Year to date cooling degree days 0  
Moisture  
Dew Point 14 °F    
Average Humidity 84    
Maximum Humidity 93    
Minimum Humidity 79    
Precipitation  
Precipitation 0.00 in 0.06 in 1.94 in (1883)
Month to date precipitation 0.11  
Year to date precipitation 1.93  
Snow  
Snow 0.00 in 0.20 in 5.20 in (1961)
Month to date snowfall 0.4  
Since 1 July snowfall 13.0  
Snow Depth -    
Sea Level Pressure  
Sea Level Pressure 30.25 in    
Wind  
Wind Speed 14 mph (NNW)    
Max Wind Speed 22 mph    
Max Gust Speed 25 mph    
Visibility 9 miles    
Events Snow    
T = Trace of Precipitation, MM = Missing Value Source: NWS Daily Summary

Daily Weather History Graph

Daily Weather History Graph

Search for Another Location

Airport:

Trip Planner

Search our weather history database for the weather conditions in past years. The results will help you decide how hot, cold, wet, or windy it might be!

Date:

Astronomy

Feb. 02, 2014 Rise Set
Actual Time 7:03 AM CST 5:18 PM CST
Civil Twilight 6:35 AM CST 5:47 PM CST
Nautical Twilight 6:03 AM CST 6:19 PM CST
Astronomical Twilight 5:31 AM CST 6:50 PM CST
Moon 8:31 AM CST (2/2) 9:01 PM CST (2/2)
Length of Visible Light 11h 11m
Length of Day
10h 14m
Waxing Crescent, 11% of the Moon is Illuminated
Feb 2
Waxing Crescent
Feb 6
First Quarter
Feb 14
Full
Feb 22
Last Quarter
Mar 1
New

Hourly Weather History & Observations

Time (CST) Temp. Windchill Dew Point Humidity Pressure Visibility Wind Dir Wind Speed Gust Speed Precip Events Conditions
12:15 AM 26.6 °F 13.8 °F 23.0 °F 86% 30.09 in 5.0 mi NNW 17.3 mph 23.0 mph N/A Snow Light Snow
12:35 AM 26.6 °F 12.4 °F 23.0 °F 86% 30.09 in 5.0 mi NNW 21.9 mph 25.3 mph N/A Snow Light Snow
12:55 AM 26.6 °F 14.7 °F 23.0 °F 86% 30.10 in 3.0 mi NNW 15.0 mph - N/A Snow Light Snow
1:15 AM 26.6 °F 13.8 °F 23.0 °F 86% 30.12 in 4.0 mi NNW 17.3 mph - N/A Snow Light Snow
1:35 AM 26.6 °F 14.7 °F 23.0 °F 86% 30.11 in 5.0 mi NNW 15.0 mph 21.9 mph N/A Snow Light Snow
1:55 AM 24.8 °F 10.7 °F 23.0 °F 93% 30.12 in 3.0 mi NNW 19.6 mph - N/A Snow Light Snow
2:15 AM 24.8 °F 13.4 °F 23.0 °F 93% 30.13 in 4.0 mi NNW 12.7 mph 18.4 mph N/A Snow Light Snow
2:35 AM 24.8 °F 12.4 °F 21.2 °F 86% 30.13 in 7.0 mi NNW 15.0 mph - N/A Snow Light Snow
2:55 AM 23.0 °F 8.7 °F 21.2 °F 93% 30.14 in 7.0 mi NNW 18.4 mph - N/A Snow Light Snow
3:15 AM 23.0 °F 9.6 °F 21.2 °F 93% 30.14 in 7.0 mi NNW 16.1 mph - N/A Snow Light Snow
3:35 AM 23.0 °F 11.1 °F 21.2 °F 93% 30.14 in 5.0 mi North 12.7 mph - N/A Snow Light Snow
3:55 AM 23.0 °F 9.6 °F 21.2 °F 93% 30.14 in 10.0 mi NNW 16.1 mph - N/A   Scattered Clouds
4:15 AM 23.0 °F 10.1 °F 19.4 °F 86% 30.15 in 10.0 mi NNW 15.0 mph - N/A   Clear
4:35 AM 21.2 °F 6.8 °F 19.4 °F 93% 30.16 in 10.0 mi NNW 17.3 mph 20.7 mph N/A   Clear
4:55 AM 21.2 °F 8.3 °F 17.6 °F 86% 30.17 in 10.0 mi NNW 13.8 mph - N/A   Clear
5:15 AM 21.2 °F 8.3 °F 17.6 °F 86% 30.18 in 10.0 mi NNW 13.8 mph 18.4 mph N/A   Clear
5:35 AM 21.2 °F 9.5 °F 17.6 °F 86% 30.18 in 10.0 mi NNW 11.5 mph - N/A   Clear
5:55 AM 21.2 °F 8.9 °F 17.6 °F 86% 30.19 in 10.0 mi NNW 12.7 mph - N/A   Scattered Clouds
6:15 AM 21.2 °F 9.5 °F 17.6 °F 86% 30.20 in 10.0 mi NNW 11.5 mph - N/A   Scattered Clouds
6:35 AM 21.2 °F 8.3 °F 17.6 °F 86% 30.21 in 10.0 mi NNW 13.8 mph 18.4 mph N/A   Mostly Cloudy
6:55 AM 19.4 °F 7.2 °F 15.8 °F 86% 30.23 in 10.0 mi NW 11.5 mph - N/A   Mostly Cloudy
7:15 AM 19.4 °F 7.2 °F 14.0 °F 80% 30.24 in 10.0 mi NW 11.5 mph - N/A   Mostly Cloudy
7:35 AM 17.6 °F 5.7 °F 14.0 °F 86% 30.25 in 10.0 mi NNW 10.4 mph 18.4 mph N/A   Clear
7:55 AM 17.6 °F 5.7 °F 12.2 °F 79% 30.26 in 10.0 mi NNW 10.4 mph - N/A   Clear
8:15 AM 17.6 °F 4.3 °F 12.2 °F 79% 30.26 in 10.0 mi NNW 12.7 mph - N/A   Clear
8:35 AM 17.6 °F 5.0 °F 12.2 °F 79% 30.29 in 10.0 mi NNW 11.5 mph - N/A   Clear
8:55 AM 15.8 °F 2.1 °F 12.2 °F 86% 30.28 in 10.0 mi NNW 12.7 mph - N/A   Clear
9:15 AM 17.6 °F 5.7 °F 12.2 °F 79% 30.31 in 10.0 mi NNW 10.4 mph - N/A   Clear
9:35 AM 17.6 °F 5.0 °F 12.2 °F 79% 30.31 in 10.0 mi NNW 11.5 mph - N/A   Clear
9:55 AM 17.6 °F 5.7 °F 12.2 °F 79% 30.31 in 10.0 mi NNW 10.4 mph - N/A   Clear
10:15 AM 17.6 °F 4.3 °F 12.2 °F 79% 30.29 in 10.0 mi NNW 12.7 mph - N/A   Clear
10:35 AM 17.6 °F 2.2 °F 12.2 °F 79% 30.27 in 10.0 mi NNW 17.3 mph - N/A   Clear
10:55 AM 19.4 °F 5.5 °F 14.0 °F 80% 30.28 in 10.0 mi NNW 15.0 mph - N/A   Clear
11:15 AM 19.4 °F 6.0 °F 14.0 °F 80% 30.30 in 10.0 mi NNW 13.8 mph - N/A   Clear
11:35 AM 19.4 °F 4.5 °F 14.0 °F 80% 30.25 in 10.0 mi North 17.3 mph - N/A   Clear
11:55 AM 19.4 °F 6.6 °F 14.0 °F 80% 30.25 in 10.0 mi North 12.7 mph - N/A   Clear
12:15 PM 19.4 °F 7.2 °F 14.0 °F 80% 30.27 in 10.0 mi NNW 11.5 mph - N/A   Clear
12:35 PM 19.4 °F 7.2 °F 14.0 °F 80% 30.27 in 10.0 mi NNW 11.5 mph - N/A   Clear
12:55 PM 17.6 °F 7.3 °F 14.0 °F 86% 30.29 in 10.0 mi North 8.1 mph - N/A   Clear
1:15 PM 19.4 °F 9.5 °F 14.0 °F 80% 30.29 in 10.0 mi NNW 8.1 mph - N/A   Clear
1:35 PM 19.4 °F 8.6 °F 14.0 °F 80% 30.28 in 10.0 mi North 9.2 mph - N/A   Clear
1:55 PM 19.4 °F 8.6 °F 14.0 °F 80% 30.28 in 10.0 mi North 9.2 mph - N/A   Clear
2:15 PM 19.4 °F 7.2 °F 14.0 °F 80% 30.27 in 10.0 mi North 11.5 mph - N/A   Clear
2:35 PM 19.4 °F 6.6 °F 14.0 °F 80% 30.28 in 10.0 mi North 12.7 mph - N/A   Clear
2:55 PM 19.4 °F 8.6 °F 14.0 °F 80% 30.30 in 10.0 mi North 9.2 mph - N/A   Clear
3:15 PM 19.4 °F 7.9 °F 14.0 °F 80% 30.29 in 10.0 mi North 10.4 mph - N/A   Mostly Cloudy
3:35 PM 17.6 °F 5.0 °F 14.0 °F 86% 30.29 in 10.0 mi North 11.5 mph - N/A   Mostly Cloudy
3:55 PM 17.6 °F 5.7 °F 14.0 °F 86% 30.29 in 10.0 mi North 10.4 mph - N/A   Scattered Clouds
4:15 PM 17.6 °F 7.3 °F 12.2 °F 79% 30.30 in 10.0 mi North 8.1 mph - N/A   Clear
4:35 PM 17.6 °F 5.7 °F 12.2 °F 79% 30.31 in 10.0 mi North 10.4 mph - N/A   Clear
4:55 PM 17.6 °F 5.0 °F 12.2 °F 79% 30.28 in 10.0 mi North 11.5 mph - N/A   Clear
5:15 PM 15.8 °F 2.7 °F 12.2 °F 86% 30.29 in 10.0 mi North 11.5 mph - N/A   Clear
5:35 PM 15.8 °F 2.1 °F 12.2 °F 86% 30.30 in 10.0 mi NNW 12.7 mph - N/A   Clear
5:55 PM 15.8 °F 2.1 °F 10.4 °F 79% 30.28 in 10.0 mi North 12.7 mph - N/A   Clear
6:15 PM 14.0 °F 0.5 °F 10.4 °F 86% 30.26 in 10.0 mi North 11.5 mph - N/A   Clear
6:35 PM 14.0 °F 1.2 °F 10.4 °F 86% 30.30 in 10.0 mi North 10.4 mph - N/A   Clear
6:55 PM 14.0 °F 2.9 °F 10.4 °F 86% 30.31 in 10.0 mi North 8.1 mph - N/A   Clear
7:15 PM 14.0 °F 2.0 °F 10.4 °F 86% 30.31 in 10.0 mi NNW 9.2 mph - N/A   Clear
7:35 PM 14.0 °F 3.9 °F 10.4 °F 86% 30.32 in 10.0 mi NNW 6.9 mph - N/A   Clear
7:55 PM 14.0 °F 2.0 °F 8.6 °F 79% 30.31 in 10.0 mi NNW 9.2 mph - N/A   Clear
8:15 PM 14.0 °F 2.0 °F 8.6 °F 79% 30.29 in 10.0 mi NNW 9.2 mph - N/A   Clear
8:35 PM 14.0 °F 1.2 °F 8.6 °F 79% 30.29 in 10.0 mi NNW 10.4 mph - N/A   Clear
8:55 PM 12.2 °F 0.7 °F 8.6 °F 85% 30.30 in 10.0 mi NNW 8.1 mph - N/A   Clear
9:15 PM 12.2 °F 0.7 °F 8.6 °F 85% 30.31 in 10.0 mi NNW 8.1 mph - N/A   Clear
9:35 PM 12.2 °F 1.7 °F 8.6 °F 85% 30.31 in 10.0 mi North 6.9 mph - N/A   Clear
9:55 PM 12.2 °F 0.7 °F 8.6 °F 85% 30.30 in 10.0 mi NNW 8.1 mph - N/A   Clear
10:15 PM 12.2 °F -1.0 °F 6.8 °F 79% 30.30 in 10.0 mi NNW 10.4 mph - N/A   Clear
10:35 PM 12.2 °F -0.2 °F 8.6 °F 85% 30.30 in 10.0 mi NNW 9.2 mph - N/A   Clear
10:55 PM 12.2 °F -2.5 °F 6.8 °F 79% 30.29 in 10.0 mi NNW 12.7 mph - N/A   Clear
11:15 PM 10.4 °F -5.4 °F 6.8 °F 85% 30.28 in 10.0 mi North 13.8 mph - N/A   Clear
11:35 PM 10.4 °F -4.1 °F 6.8 °F 85% 30.30 in 10.0 mi NNW 11.5 mph - N/A   Clear
11:55 PM 10.4 °F -1.5 °F 5.0 °F 79% 30.32 in 10.0 mi NNW 8.1 mph - N/A   Clear